CAPE
35 18 24 32 26 20 7 15 19 7 31 88 4 5 4 7 12 8 5 0 0 14 0 0 0 0 0 0 0 0 0 0 0 0 0 0 0 0 0 0 0 0 0 0 33
55 52 39 27 32 28 24 10 17 8 12 51 66 14 8 9 15 7 0 0 0 56 7 0 0 0 0 0 0 0 0 0 0 0 0 0 0 0 0 0 0 0 0 0 21
63 60 64 47 54 32 37 32 12 8 4 13 133 20 8 20 15 0 0 0 0 34 0 0 0 0 0 0 0 0 0 0 0 0 0 0 0 0 0 0 0 0 12 2 2
84 73 60 63 71 63 63 36 18 18 6 13 42 30 5 16 0 0 158 0 18 39 0 0 0 0 0 0 0 0 0 0 0 0 0 0 0 0 0 0 0 0 0 0 0
123 133 127 90 84 59 62 40 29 16 4 15 9 37 18 11 0 0 82 76 21 23 0 3 10 0 0 0 0 0 0 0 0 0 0 0 0 0 0 0 0 0 0 0 0
122 113 132 160 135 113 77 73 33 31 16 7 7 59 17 0 0 0 0 116 82 46 30 30 17 0 0 0 0 0 0 0 0 0 0 0 0 0 0 0 0 0 0 0 0
134 142 153 177 161 162 138 76 66 35 39 4 0 42 15 0 0 0 0 12 10 60 16 14 21 3 0 0 0 0 0 0 0 0 0 0 0 0 0 0 0 0 0 0 0
141 183 197 195 180 177 166 100 41 36 33 4 7 66 3 0 0 0 0 0 0 0 58 83 13 1 0 0 0 0 0 0 0 0 0 0 0 0 0 0 0 0 0 0 0
125 170 177 174 184 160 147 151 105 60 34 18 9 30 0 0 0 0 0 0 0 0 2 94 52 10 1 0 0 0 0 0 0 0 0 0 0 0 0 0 0 0 0 0 0
107 126 142 126 89 134 137 111 73 47 14 15 4 6 0 0 0 0 0 0 0 74 78 76 34 8 13 2 2 0 0 0 0 0 0 0 0 0 0 0 0 0 0 0 0
83 68 58 44 76 115 22 0 0 4 12 30 4 0 0 0 0 0 0 0 0 5 19 16 2 1 6 0 0 0 0 0 0 0 0 0 0 0 0 0 0 0 0 0 0
47 52 42 59 106 113 7 1 1 3 0 0 2 0 0 0 0 0 0 1 1 10 2 25 5 0 0 0 1 0 0 0 0 0 0 0 0 0 0 0 0 0 0 0 0
59 54 55 78 79 5 7 3 2 6 10 3 31 5 0 0 0 0 0 0 0 0 0 1 0 0 0 1 8 0 0 0 0 0 0 0 0 0 0 0 0 0 0 0 0
33 38 51 97 64 15 7 0 4 1 0 10 28 22 8 1 0 0 6 0 13 6 0 0 0 0 0 0 0 0 0 0 0 0 0 0 0 0 0 0 0 0 0 0 0
23 22 76 131 57 8 45 8 9 0 0 8 22 28 16 2 0 0 0 3 0 0 0 0 0 0 0 0 0 0 0 0 0 0 0 0 0 0 0 0 0 0 0 0 0
67 109 138 80 17 19 28 23 5 1 0 42 29 29 15 0 0 0 7 0 0 0 0 0 0 0 0 0 0 0 0 0 0 0 0 0 0 0 0 0 0 0 0 0 0
111 152 175 86 47 25 3 24 0 0 2 4 14 21 1 8 0 10 11 0 0 1 0 0 0 0 0 0 0 0 0 0 0 0 0 0 0 0 0 0 0 0 0 0 0
156 122 11 36 12 0 2 0 0 3 9 6 4 8 9 10 8 20 2 0 0 0 0 0 0 0 0 0 0 0 0 0 0 0 0 0 0 0 0 0 0 0 0 0 0
1 1 1 0 1 0 10 0 0 15 10 13 13 35 19 11 10 4 0 0 0 0 0 0 0 0 0 0 0 0 0 0 0 0 0 0 0 0 0 0 0 0 0 0 0
0 5 8 16 0 0 3 24 5 6 8 1 3 0 13 5 9 6 4 0 0 0 0 0 0 0 0 0 0 0 0 0 0 0 0 0 0 0 0 0 0 0 0 0 0
0 6 0 0 0 0 5 32 12 5 6 0 0 0 0 1 0 1 0 0 0 0 0 0 0 0 2 0 0 0 0 0 0 0 0 0 0 0 0 0 0 0 0 0 0
0 0 0 0 0 4 17 10 3 0 0 0 0 0 0 0 0 0 0 0 0 0 0 0 0 0 0 0 0 0 0 0 0 0 0 0 0 0 0 0 0 0 0 0 0
0 0 0 0 3 0 10 6 1 6 3 2 0 0 0 0 0 1 0 0 0 0 0 0 0 0 0 0 0 0 0 0 0 0 0 0 0 0 0 0 0 0 0 0 0
0 0 0 0 0 3 4 3 4 4 0 0 0 0 0 0 0 0 0 0 0 1 13 0 0 0 0 0 0 0 0 0 0 0 0 0 0 0 0 0 0 0 0 1 0
0 0 0 0 0 2 1 0 2 10 1 0 0 0 7 0 0 0 0 0 0 1 0 0 0 0 0 0 0 0 0 0 0 0 0 0 0 0 0 0 0 0 0 1 0
0 1 0 0 0 0 0 0 0 0 0 0 0 0 0 0 0 0 0 0 0 0 0 0 0 0 0 0 0 0 0 0 0 0 0 0 0 0 0 0 0 0 2 0 2
1 0 6 0 0 0 0 0 0 0 0 0 0 0 0 0 0 0 0 0 0 0 0 0 0 0 0 0 0 0 0 0 0 0 0 0 0 0 0 0 0 2 0 0 0
CIN
0 -0 -0 -0 0 0 -0 -0 0 -4 -7 -60 -0 -0 0 0 0 -0 0 0 0 -6 0 0 0 0 0 0 0 0 0 0 0 0 0 0 0 0 0 0 0 0 0 0 -210
0 -0 -0 -0 -0 -0 -0 -0 -2 -0 -15 -42 -21 0 0 0 -0 0 0 0 0 -9 -20 0 0 0 0 0 0 0 0 0 0 0 0 0 0 0 0 0 0 0 0 0 -205
-0 0 -0 -0 -0 -0 -0 -0 -0 -1 0 -3 -35 -0 0 -0 0 0 0 0 0 -1 0 0 0 0 0 0 0 0 0 0 0 0 0 0 0 0 0 0 0 0 -86 -23 -27
0 0 0 -0 -0 0 -1 0 0 0 -0 -0 -18 -31 -0 -0 0 0 -6 0 -0 -10 0 0 -1 0 0 0 0 0 0 0 0 0 0 0 0 0 0 0 0 0 0 0 0
0 -0 -1 0 -0 -0 -0 0 0 -0 -0 -3 -14 -3 -1 0 0 0 -19 -5 -2 -18 0 -6 -8 0 0 0 0 0 0 0 0 0 0 0 0 0 0 0 0 0 0 0 0
-0 0 -0 -1 0 0 -1 0 -0 -0 -0 0 -7 -15 -0 0 0 0 0 -13 -2 -10 -8 -11 -15 0 0 0 0 0 0 0 0 0 0 0 0 0 0 0 0 0 0 0 0
0 0 -0 -3 -0 0 0 0 0 -0 0 0 -5 -5 0 0 0 0 0 -12 -27 -24 -17 -34 -37 -21 0 0 0 0 0 0 0 0 0 0 0 0 0 0 0 0 0 0 0
0 0 0 0 -0 0 0 -0 0 -0 0 -3 0 -19 -0 0 0 0 0 0 0 0 -29 -36 -46 -20 0 0 0 0 0 0 0 0 0 0 0 0 0 0 0 0 0 0 0
-0 0 -0 -0 -0 0 0 0 -1 -7 -1 -13 -0 -5 0 -4 0 0 0 0 0 0 -61 -16 -26 -28 -5 0 0 0 0 0 0 0 0 0 0 0 0 0 0 0 0 0 0
0 0 -0 0 -0 -2 -0 -0 -30 -14 -16 -9 0 -0 -1 0 0 0 0 0 0 -11 -9 -5 -4 -1 -16 -11 -0 0 0 0 0 0 0 0 0 0 0 0 0 0 0 0 0
0 0 -9 -25 -1 0 -26 0 -0 -14 -1 -1 -8 0 0 0 0 0 0 0 -15 -19 -1 -4 -9 -6 -11 0 0 0 0 -9 0 0 0 0 0 0 0 0 0 0 0 0 0
-0 -0 -0 -6 0 0 -3 -1 -3 -8 0 -0 -0 0 0 0 0 0 0 -1 -2 -3 -18 0 -3 0 -14 -8 -7 -4 -4 0 0 0 0 0 0 0 0 0 0 0 0 0 0
0 0 0 -7 -3 0 -23 -0 -16 -37 -1 -7 -0 -0 -1 0 0 0 0 0 0 -0 0 -3 0 0 -9 -7 -13 -2 0 0 0 0 0 0 0 0 0 0 0 0 0 0 0
0 -0 -24 -11 -4 -0 -4 0 -30 -37 0 -3 0 -2 -3 -9 0 0 -17 0 -2 -2 0 0 0 0 0 0 0 0 0 0 0 0 0 0 0 0 0 0 0 0 0 0 0
-0 -3 -19 -0 -9 -2 -2 -33 -31 0 0 -22 0 -4 -19 -19 0 -7 0 -16 0 0 0 0 0 0 0 0 0 0 0 0 0 0 0 0 0 0 0 0 0 0 0 0 0
-9 -3 -0 -2 -7 -16 -11 -13 -5 0 0 -0 0 0 -1 -4 0 -5 -20 0 0 -8 0 0 0 0 0 0 0 0 0 0 0 0 0 0 0 0 0 0 0 0 0 0 0
-0 0 -0 -4 -6 -18 -24 -0 -0 0 0 0 0 -0 0 -3 -1 -5 -5 0 0 -4 0 0 0 0 0 0 0 0 0 0 0 0 0 0 0 0 0 0 0 0 0 0 0
-2 -6 -21 -37 -26 0 -4 -0 0 0 0 0 -0 -1 -1 -8 -3 -1 -10 0 0 0 0 0 0 0 0 0 0 0 0 0 0 0 0 0 0 0 0 0 0 0 0 0 0
-38 -34 -7 0 -4 0 -2 0 0 0 0 0 -0 0 0 -16 -9 -4 -6 0 0 0 0 0 0 0 0 0 0 0 0 0 0 0 0 0 0 0 0 0 0 0 0 0 0
0 -18 -3 -25 0 0 0 0 0 0 -0 -1 0 -0 -0 -5 -5 -5 -2 0 0 0 0 0 0 0 0 -4 0 0 0 0 0 0 0 0 0 0 0 0 0 0 0 0 0
0 -5 -2 0 0 0 0 0 0 -0 -0 0 0 0 0 -3 0 -3 0 0 0 0 0 0 0 0 -13 0 0 0 0 0 0 0 0 0 0 0 0 0 0 0 0 0 0
0 0 0 0 0 -5 0 0 0 0 0 0 0 0 -4 -4 0 -1 0 0 0 0 0 0 0 0 0 0 0 0 0 0 0 0 0 0 0 0 0 0 0 0 0 0 0
0 0 0 0 -0 0 0 0 0 -3 -4 -13 0 0 0 0 0 -1 0 0 0 0 0 0 0 0 0 0 0 0 0 0 0 0 0 0 0 0 0 0 0 0 0 -7 -1
0 0 0 0 0 0 0 0 -0 -3 0 0 0 0 -5 0 0 -7 0 0 0 -20 -24 0 0 0 0 0 0 0 0 0 0 0 0 0 0 0 0 0 0 0 -6 -0 0
0 0 0 0 0 -1 0 0 -12 -11 -3 0 0 0 -9 -14 0 0 0 0 0 -7 0 0 0 0 0 0 0 0 0 0 0 0 0 0 0 0 0 0 0 -1 0 0 -0
-0 0 -1 0 -3 0 0 0 0 0 0 0 0 0 0 0 0 0 0 0 0 0 0 0 0 0 0 0 0 0 0 0 0 0 0 0 0 0 0 0 0 0 0 0 0
-1 -1 0 0 0 0 0 0 0 0 0 0 0 0 0 0 0 0 0 0 0 0 0 0 0 0 0 0 0 0 0 0 0 0 0 0 0 0 0 0 0 0 0 0 0
Wind_Speed
18 18 16 16 15 17 17 17 18 20 20 15 11 10 9 8 9 5 11 9 11 10 5 3 4 5 3 2 3 5 3 4 5 7 5 4 4 5 4 3 1 1 8 6 10
19 18 19 18 16 16 18 17 18 20 21 21 13 10 8 6 7 12 10 15 18 20 3 5 4 5 2 4 3 5 5 8 5 5 3 5 2 6 8 3 2 3 4 6 8
20 20 19 19 18 15 17 17 16 19 21 22 14 9 5 2 5 9 17 22 21 16 9 5 2 4 4 3 5 4 6 8 6 7 0 4 5 2 4 5 4 3 4 5 4
21 21 20 20 19 16 15 18 16 18 19 19 20 8 4 2 8 2 5 25 17 9 8 5 4 3 6 6 5 3 6 7 4 7 3 3 4 3 5 6 3 2 1 6 6
19 18 16 20 19 19 18 16 19 15 19 17 20 11 5 4 9 5 7 20 13 9 9 6 5 5 5 7 4 3 3 5 7 8 4 6 6 6 7 9 9 4 4 6 6
22 20 19 17 16 17 17 18 18 16 18 18 18 9 4 7 6 5 2 14 11 9 6 7 7 7 4 3 8 2 6 5 4 4 4 6 6 5 4 7 11 7 6 8 7
21 19 19 19 16 16 16 17 17 14 17 18 17 10 7 14 4 5 4 5 7 10 6 5 3 4 5 1 5 3 4 3 5 4 4 2 14 9 10 10 10 12 11 6 9
20 18 17 17 14 15 16 16 15 17 17 19 15 8 6 8 10 7 3 3 5 6 7 6 3 1 3 2 3 5 4 0 4 2 6 9 18 3 10 7 11 12 11 12 9
17 17 17 17 15 15 14 15 18 18 17 15 6 6 6 5 6 7 5 4 5 6 9 7 5 1 2 6 3 1 2 4 7 8 7 9 2 11 15 11 9 12 10 10 13
16 16 17 16 13 12 14 17 19 14 7 6 6 3 5 6 7 8 6 4 3 7 8 4 4 3 3 4 6 6 4 3 5 4 1 7 9 11 7 6 10 10 11 11 11
19 17 18 15 13 12 8 5 5 2 2 4 6 3 4 4 8 9 5 5 4 3 5 5 3 5 8 4 3 4 1 2 4 3 5 7 5 12 13 7 10 14 13 13 14
20 18 16 16 16 11 3 2 3 3 6 8 6 12 6 7 9 12 9 7 5 5 4 3 2 8 14 11 7 2 3 4 6 1 3 7 16 16 15 14 16 20 19 15 13
20 17 17 15 15 6 3 5 5 3 2 4 9 14 4 5 4 13 9 6 6 7 4 5 3 6 6 7 7 4 4 2 5 5 1 8 11 7 7 8 9 16 16 13 15
19 18 18 19 10 2 2 4 5 2 2 4 8 5 4 5 4 5 6 6 4 8 7 4 1 6 7 2 3 2 3 2 2 4 4 6 9 7 8 10 7 8 8 12 13
19 19 20 17 5 3 2 5 4 2 5 9 5 1 5 0 14 7 2 2 6 7 5 4 5 6 4 4 5 4 5 4 2 3 4 3 2 11 4 6 5 4 5 8 10
21 20 20 6 1 3 8 5 2 2 2 6 7 10 9 7 2 6 2 3 4 6 5 3 2 3 6 4 4 7 5 7 4 3 3 5 5 8 3 4 2 4 9 9 9
24 21 16 3 1 7 7 2 4 2 2 5 9 17 14 5 6 7 6 3 5 6 4 2 2 2 4 7 3 5 6 3 5 3 7 1 3 11 9 12 4 8 11 10 4
14 7 4 3 4 7 4 2 1 6 5 8 13 14 7 10 7 8 7 4 2 5 5 5 2 6 3 5 6 3 6 6 5 2 5 2 6 8 6 8 5 2 6 5 6
12 3 4 6 4 4 1 3 3 4 5 11 15 6 5 5 7 6 6 6 4 3 6 5 2 2 5 4 7 3 2 4 4 3 4 5 8 10 3 4 5 8 10 10 10
3 3 4 5 6 4 1 5 4 3 9 9 4 2 5 5 7 5 9 6 3 6 1 5 4 2 2 5 2 5 6 4 3 1 4 6 6 7 4 4 5 7 8 7 7
4 3 3 5 2 2 3 5 5 8 2 2 4 5 8 7 8 5 9 1 7 4 4 1 5 2 4 4 6 4 2 2 4 4 4 4 8 7 4 2 7 7 7 7 7
3 4 3 3 3 1 2 2 3 5 5 5 5 10 5 5 4 4 8 3 7 6 5 1 5 3 7 2 3 4 5 6 5 4 2 2 11 7 4 2 7 17 16 20 18
2 1 1 2 3 3 5 5 3 4 5 4 4 3 5 6 6 3 5 4 9 8 8 4 2 3 4 6 3 4 5 5 4 2 6 2 9 1 9 20 19 17 18 17 14
3 3 3 2 1 2 2 2 3 5 5 5 6 10 5 3 3 4 3 5 3 3 9 7 3 5 6 6 3 3 5 7 8 4 3 10 18 22 17 21 20 19 16 11 9
4 2 0 3 3 2 3 5 7 7 7 7 7 4 4 4 6 4 3 3 6 4 4 5 3 3 5 6 2 6 5 7 9 17 7 14 16 25 22 23 18 15 9 11 9
2 3 3 3 4 4 5 6 7 6 5 4 6 3 8 4 1 6 6 3 4 1 4 2 1 3 5 4 7 7 10 11 13 16 18 21 24 22 20 11 12 10 12 13 13
3 2 2 5 2 2 2 4 5 2 7 6 5 7 10 5 3 4 4 6 7 7 3 4 4 3 5 3 4 6 11 13 7 6 9 8 10 9 13 13 5 9 11 13 15
Wind_Direction
329 327 327 324 330 330 314 324 326 322 328 265 249 253 260 275 282 252 239 218 201 205 139 137 181 200 118 223 193 131 120 211 227 176 233 296 7 289 228 243 327 64 159 190 149
319 319 319 321 322 323 322 309 318 321 318 328 245 243 253 276 269 252 231 215 210 212 228 210 190 171 161 193 209 153 172 217 209 222 264 306 9 328 348 257 18 14 36 99 135
317 315 308 310 315 317 317 317 305 311 314 314 264 226 239 269 256 244 217 218 206 219 213 192 126 167 183 162 206 189 190 219 250 276 30 319 310 291 314 265 45 320 150 141 153
314 309 314 316 316 313 309 311 310 306 299 309 323 208 190 216 228 227 317 196 202 164 153 156 146 174 185 194 213 188 200 218 229 266 297 272 278 270 234 245 266 216 320 318 248
319 313 312 310 312 308 309 307 301 294 301 305 300 186 146 218 245 271 300 182 196 146 175 168 161 167 188 178 240 214 259 236 247 266 236 271 248 241 229 272 287 168 213 251 274
321 320 312 306 306 311 306 303 300 294 297 296 297 186 151 227 241 242 273 173 171 157 175 160 187 200 203 198 170 205 221 240 261 239 234 247 249 205 254 233 290 290 235 223 254
320 321 313 310 317 306 305 304 297 296 292 290 294 202 194 221 286 166 152 161 165 181 167 190 175 193 186 163 191 162 174 283 232 227 244 0 272 221 229 250 250 284 285 243 224
325 320 313 310 314 304 303 302 297 289 284 285 286 225 232 218 251 304 135 164 193 187 200 183 125 301 179 166 112 131 65 52 265 274 243 163 253 241 239 252 269 270 273 277 231
329 322 321 321 313 308 301 298 291 281 278 279 289 189 231 165 190 217 189 189 170 169 188 100 120 206 112 127 63 11 190 213 305 219 227 179 269 244 241 226 245 260 260 267 274
333 325 320 313 329 324 313 307 282 279 278 239 254 123 257 196 163 176 192 196 162 152 119 126 144 173 133 148 190 202 190 223 238 327 273 257 254 268 273 235 234 244 255 255 254
322 320 315 320 318 317 328 338 10 21 265 213 150 219 181 157 125 173 162 139 111 140 149 167 138 170 166 222 123 145 141 287 273 291 334 270 266 272 272 267 263 259 243 251 248
326 323 318 316 315 304 319 248 212 180 313 244 264 230 241 156 145 171 149 153 146 151 125 129 183 178 188 214 211 236 326 297 283 251 276 303 286 271 259 251 234 248 255 251 256
324 319 316 314 321 322 220 234 157 217 298 240 233 218 172 114 119 163 169 133 146 143 146 134 159 155 162 169 209 165 167 239 263 319 349 319 272 256 287 263 256 246 249 251 246
323 319 317 320 306 212 278 201 159 125 118 221 201 203 173 149 69 113 182 134 151 161 129 160 210 163 151 141 121 133 81 133 44 40 266 41 291 297 280 303 289 276 251 245 246
320 313 311 316 284 210 114 148 131 53 111 154 150 304 115 321 140 191 42 42 145 134 117 199 165 121 119 164 146 171 122 99 66 40 0 277 225 274 300 304 307 290 276 277 253
314 306 311 296 208 193 143 136 40 167 225 165 124 181 122 133 39 113 107 33 113 93 59 112 132 108 154 89 119 144 75 42 49 62 334 241 180 284 264 250 268 300 295 291 282
300 298 306 268 13 136 132 110 66 254 302 175 154 142 131 123 120 140 154 118 133 130 122 73 49 102 101 93 66 93 70 353 355 355 230 179 158 252 270 276 274 305 299 299 238
355 15 342 345 104 101 68 35 115 255 228 146 133 132 104 125 132 135 136 117 34 79 118 141 287 171 193 152 170 170 136 158 224 227 287 329 238 253 234 283 297 321 309 313 308
18 18 26 6 54 64 332 11 289 337 323 128 115 99 110 77 125 127 182 159 196 154 131 125 269 174 160 133 125 198 145 189 99 17 31 260 292 293 140 66 24 6 16 354 336
40 35 19 341 346 54 350 328 278 285 123 116 85 61 112 120 119 137 166 185 206 181 127 191 92 137 110 88 109 134 153 63 355 221 274 279 276 247 294 354 5 14 6 351 344
47 60 282 325 74 37 353 336 317 331 168 108 133 126 118 123 124 146 175 304 177 178 174 112 99 295 113 184 175 151 189 121 121 165 204 316 270 221 216 115 313 306 280 284 279
88 63 283 356 61 234 309 336 336 296 274 287 82 103 92 95 119 134 189 254 183 146 163 34 105 149 199 288 184 166 184 149 127 267 245 163 264 274 293 294 301 321 319 318 309
53 277 341 31 36 343 343 321 267 256 240 139 109 120 139 124 139 143 132 328 173 157 161 168 30 60 18 2 15 191 196 168 118 117 206 177 261 290 307 324 315 316 310 306 303
72 27 333 13 225 304 304 292 283 227 282 92 104 122 99 102 55 120 98 32 104 128 142 94 141 159 182 203 143 186 187 187 181 204 209 232 284 287 296 308 312 314 304 321 329
16 327 303 328 315 336 252 332 32 16 19 35 84 107 117 118 114 104 98 80 35 62 69 100 166 148 243 249 178 201 206 195 195 234 240 272 285 287 297 297 308 307 321 315 316
30 354 329 285 294 2 358 351 13 360 32 37 95 54 78 76 233 160 128 126 180 51 94 53 177 87 297 258 212 247 240 227 237 248 258 268 275 279 278 303 325 348 337 322 323
329 308 297 282 279 27 314 332 355 20 37 41 108 78 55 18 24 85 116 154 155 138 118 116 114 72 277 301 321 280 227 200 202 210 214 235 250 291 309 329 357 340 329 319 306